Hourly Weather Roundup
Issued by NWS Central Illinois

Home | Current Version | Previous Version | Graphics & Text | Print | Product List | Glossary On
Versions: 1 2 3 4 5 6 7 8 9 10 11 12 13 14 15 16 17 18 19 20 21 22 23 24 25 26 27 28 29 30 31 32 33 34 35 36 37 38 39 40 41 42 43 44 45 46 47 48 49 50
000
NZUS43 KILX 180310
HWRILX

AREA WEATHER ROUNDUP
NATIONAL WEATHER SERVICE, LINCOLN IL
1000 PM CDT FRI APR 17 2015


CITY           SKY/WX    TMP DP  RH WIND       PRES   REMARKS
BLOOMINGTON    PTCLDY    66  52  60 S5        30.04S
CHAMPAIGN      CLEAR     60  50  69 SE6       30.04R
DECATUR        CLEAR     64  52  64 S5        30.03S
EFFINGHAM      CLEAR     60  52  73 CALM      30.04F
FLORA          CLEAR     62  56  81 CALM      30.03F
GALESBURG      MOCLDY    63  53  68 CALM      30.01S
JACKSONVILLE   CLEAR     69  54  58 S3        30.02S
LACON          PTCLDY    62  51  67 CALM      30.01S
LAWRENCEVILLE  CLEAR     60  56  86 CALM      30.03S
LITCHFIELD     CLEAR     64  55  70 S3        30.03S
$$


CITY           SKY/WX    TMP DP  RH WIND       PRES   REMARKS
LINCOLN        CLEAR     65  51  61 CALM      30.01R
MACOMB         PTCLDY    67  52  58 CALM      30.03S
MATTOON        CLEAR     63  54  72 S3        30.03S
MT CARMEL AP   CLEAR     64  57  77 CALM      30.03F
OLNEY-NOBLE AP CLEAR     61  55  82 CALM      30.03F
PARIS          CLEAR     60  54  78 CALM      30.05S
PEORIA         CLEAR     68  52  56 CALM      30.01S
PONTIAC        CLEAR     59  47  64 CALM      30.03S
RANTOUL        CLEAR     64  51  62 S5        30.04S
ROBINSON       CLEAR     59  56  90 CALM      30.05R
SPRINGFIELD    CLEAR     65  53  65 S5        30.02S
TAYLORVILLE    CLEAR     63  54  72 CALM      30.03S
$$

...REGIONAL REPORTS...


CITY           SKY/WX    TMP DP  RH WIND       PRES   REMARKS
CHICAGO O`HARE PTCLDY    61  46  57 S5        30.01R
KANKAKEE       CLEAR     59  51  73 S3        30.04R
MOLINE         PTCLDY    58  49  72 CALM      30.00S
MOUNT VERNON   CLEAR     57  52  82 CALM      30.04S
PITTSFIELD     CLEAR     66  53  62 S5        30.03R
QUINCY         CLEAR     67  52  58 SE6       30.01R
ROCKFORD       PTCLDY    64  49  57 S5        30.03R
$$


CITY           SKY/WX    TMP DP  RH WIND       PRES   REMARKS
BURLINGTON     PTCLDY    66  54  65 SE3       30.00S
CEDAR RAPIDS   PTCLDY    64  49  57 S3        30.00S
DES MOINES     MOCLDY    70  51  51 CALM      30.01R
KIRKSVILLE     PTCLDY    69  55  60 SE6       30.01S
OTTUMWA        PTCLDY    65  50  58 E6        30.00S
ST LOUIS       PTCLDY    69  56  62 E5        30.02R
$$


CITY           SKY/WX    TMP DP  RH WIND       PRES   REMARKS
TERRE HAUTE    CLEAR     59  52  77 CALM      30.05R
EVANSVILLE     CLEAR     64  58  80 CALM      30.03S
INDIANAPOLIS   CLEAR     65  43  44 E3        30.03S
LAFAYETTE      CLEAR     59  48  67 CALM      30.03R
MADISON        PTCLDY    59  45  59 CALM      30.00R
MILWAUKEE      PTCLDY    50  39  66 E3        30.01S
$$





USA.gov is the U.S. government's official web portal to all federal, state and local government web resources and services.